Tracking 19638 objects as of 21-May-2019
HD Live streaming from Space Station
objects crossing your sky now

RADIO 2

Track RADIO 2 now!
10-day predictions
RADIO 2 is classified as:


NORAD ID: 11086
Int'l Code: 1978-100C
Perigee: 1,691.8 km
Apogee: 1,713.5 km
Inclination: 82.6 °
Period: 120.3 minutes
Semi major axis: 8073 km
RCS: 0.379 m2 (medium)
Launch date: October 26, 1978
Source: Commonwealth of Independent States (former USSR) (CIS)
Launch site: PLESETSK MISSILE AND SPACE COMPLEX (PKMTR)

Uplink (MHz):
Downlink (MHz):
Beacon (MHz):
Mode:
Call sign:
Status: Inactive

aabbcc
Your satellite tracking list
Your tracking list is empty




NASA's NSSDC Master Catalog

Two Line Element Set (TLE):
1 11086U 78100C   19140.56679611 -.00000019  00000-0 -35997-3 0  9996
2 11086  82.5516  66.3597 0013429  92.9978  25.0358 11.96726715772187
Source of the keplerian elements: AFSPC